Location: Asheville, NC
(35.6000°N, 82.5500°W)
Time: 22:39:03
(UTC-04:00)

N. Korean satellite - Pass Details

Date: 14 December 2017
Orbit: 458 x 514 km, 97.2° (Epoch: 26 April)

Event Time Altitude Azimuth Distance (km) Brightness Sun altitude
Rises 17:50:07 0° 140° (SE) 2,584 10.1 -6.7°
Reaches altitude 10° 17:52:27 10° 126° (SE) 1,713 9.1 -7.1°
Maximum altitude 17:55:28 24° 72° (ENE) 1,086 7.7 -7.7°
Drops below altitude 10° 17:58:31 10° 17° (NNE) 1,740 9.0 -8.2°
Sets 18:00:54 0° 4° (N) 2,636 10.0 -8.7°
